EN

Hourly Weather Abramenki

Today, 25 November, Wednesday

Time Temperature Precipitation Wind Pressure Humidity
00:00 0°C° 0 mm 3 mps 745 mmHg 93%
01:00 +1°C° 0 mm 2 mps 745 mmHg 94%
02:00 +3°C° 0 mm 1 mps 745 mmHg 96%
03:00 +3°C° 0.2 mm 1 mps 744 mmHg 97%
04:00 +3°C° 0.2 mm 1 mps 744 mmHg 97%
05:00 +3°C° 0.2 mm 1 mps 744 mmHg 98%
06:00 +2°C° 1.2 mm 1 mps 744 mmHg 98%
07:00 +1°C° 1.2 mm 2 mps 744 mmHg 98%
08:00 +2°C° 0 mm 1 mps 745 mmHg 97%
09:00 +2°C° 0.2 mm 1 mps 745 mmHg 97%
10:00 +2°C° 0.2 mm 1 mps 745 mmHg 97%
11:00 +2°C° 0.2 mm 1 mps 745 mmHg 96%
12:00 +3°C° 0 mm 1 mps 746 mmHg 96%
13:00 +3°C° 0 mm 1 mps 746 mmHg 96%
14:00 +2°C° 0 mm 0 mps 747 mmHg 96%
15:00 +2°C° 0 mm 0 mps 747 mmHg 97%
16:00 +2°C° 0 mm 0 mps 747 mmHg 97%
17:00 +1°C° 0 mm 0 mps 747 mmHg 97%
18:00 +1°C° 0 mm 0 mps 748 mmHg 97%
19:00 +2°C° 0 mm 1 mps 748 mmHg 96%
20:00 +2°C° 0 mm 1 mps 748 mmHg 96%
21:00 +2°C° 0 mm 1 mps 748 mmHg 96%
22:00 +1°C° 0 mm 2 mps 748 mmHg 95%
23:00 +1°C° 0 mm 2 mps 748 mmHg 95%

Tomorrow, 26 November, Thursday

Time Temperature Precipitation Wind Pressure Humidity
00:00 +2°C° 0.2 mm 2 mps 748 mmHg 95%
01:00 +1°C° 0.2 mm 3 mps 748 mmHg 95%
02:00 +1°C° 0.2 mm 3 mps 748 mmHg 96%
03:00 +1°C° 0.6 mm 3 mps 748 mmHg 96%
04:00 +1°C° 0.6 mm 3 mps 747 mmHg 97%
05:00 +1°C° 0.6 mm 3 mps 747 mmHg 97%
06:00 +2°C° 0.3 mm 3 mps 747 mmHg 98%
07:00 +3°C° 0.3 mm 3 mps 747 mmHg 98%
08:00 +4°C° 0.3 mm 2 mps 747 mmHg 98%
09:00 +3°C° 0 mm 3 mps 747 mmHg 97%
10:00 +4°C° 0 mm 3 mps 746 mmHg 97%
11:00 +4°C° 0 mm 3 mps 746 mmHg 96%
12:00 +4°C° 0 mm 3 mps 746 mmHg 92%
13:00 +4°C° 0 mm 3 mps 746 mmHg 88%
14:00 +4°C° 0 mm 4 mps 746 mmHg 83%
15:00 +3°C° 0 mm 4 mps 745 mmHg 83%
16:00 +1°C° 0 mm 4 mps 745 mmHg 83%
17:00 0°C° 0 mm 4 mps 745 mmHg 83%
18:00 0°C° 0 mm 4 mps 745 mmHg 84%
19:00 -1°C° 0 mm 4 mps 744 mmHg 85%
20:00 -1°C° 0 mm 4 mps 744 mmHg 85%
21:00 -1°C° 0 mm 4 mps 744 mmHg 86%
22:00 -2°C° 0 mm 4 mps 744 mmHg 87%
23:00 -2°C° 0 mm 4 mps 743 mmHg 88%

Day after tomorrow, 27 November, Friday

Time Temperature Precipitation Wind Pressure Humidity
00:00 -2°C° 0 mm 4 mps 743 mmHg 89%
01:00 -2°C° 0 mm 4 mps 743 mmHg 89%
02:00 -1°C° 0 mm 3 mps 743 mmHg 90%
03:00 -2°C° 0 mm 4 mps 742 mmHg 90%
04:00 -2°C° 0 mm 4 mps 742 mmHg 90%
05:00 -2°C° 0 mm 4 mps 741 mmHg 90%
06:00 -2°C° 0 mm 4 mps 741 mmHg 91%
07:00 -2°C° 0 mm 4 mps 741 mmHg 92%
08:00 -1°C° 0 mm 3 mps 741 mmHg 93%
09:00 0°C° 0.3 mm 3 mps 741 mmHg 94%
10:00 -1°C° 0.3 mm 4 mps 741 mmHg 94%
11:00 -1°C° 0.3 mm 4 mps 740 mmHg 95%
12:00 0°C° 0.2 mm 4 mps 740 mmHg 94%
13:00 0°C° 0.2 mm 4 mps 740 mmHg 93%
14:00 +1°C° 0.2 mm 4 mps 740 mmHg 92%
15:00 +1°C° 0.1 mm 4 mps 740 mmHg 93%
16:00 +1°C° 0.1 mm 4 mps 740 mmHg 93%
17:00 +1°C° 0.1 mm 4 mps 740 mmHg 94%
18:00 +1°C° 0.5 mm 4 mps 740 mmHg 95%
19:00 +1°C° 0.5 mm 4 mps 740 mmHg 95%
20:00 +1°C° 0.5 mm 4 mps 741 mmHg 96%
21:00 +1°C° 0.1 mm 3 mps 741 mmHg 95%
22:00 +1°C° 0.1 mm 3 mps 741 mmHg 94%
23:00 0°C° 0.1 mm 3 mps 742 mmHg 93%

28 November, Saturday

Time Temperature Precipitation Wind Pressure Humidity
00:00 +1°C° 0.1 mm 2 mps 742 mmHg 94%
01:00 -1°C° 0.1 mm 2 mps 743 mmHg 95%
02:00 -1°C° 0.1 mm 2 mps 743 mmHg 96%
03:00 -1°C° 0.1 mm 2 mps 743 mmHg 95%
04:00 -1°C° 0.1 mm 2 mps 744 mmHg 94%
05:00 -2°C° 0.1 mm 2 mps 744 mmHg 94%
06:00 -2°C° 0 mm 2 mps 745 mmHg 94%
07:00 0°C° 0 mm 1 mps 745 mmHg 95%
08:00 -1°C° 0 mm 1 mps 745 mmHg 95%
09:00 0°C° 0 mm 1 mps 746 mmHg 93%
10:00 +1°C° 0 mm 1 mps 747 mmHg 90%
11:00 +1°C° 0 mm 1 mps 747 mmHg 88%
12:00 +2°C° 0 mm 1 mps 747 mmHg 89%
13:00 +2°C° 0 mm 1 mps 748 mmHg 90%
14:00 +2°C° 0 mm 1 mps 748 mmHg 92%
15:00 +2°C° 0 mm 1 mps 748 mmHg 93%
16:00 +2°C° 0 mm 1 mps 749 mmHg 94%
17:00 +1°C° 0 mm 1 mps 749 mmHg 96%
18:00 +1°C° 0.1 mm 1 mps 749 mmHg 96%
19:00 +1°C° 0.1 mm 1 mps 750 mmHg 97%
20:00 +1°C° 0.1 mm 1 mps 750 mmHg 97%
21:00 +1°C° 0 mm 1 mps 750 mmHg 97%
22:00 +1°C° 0 mm 1 mps 751 mmHg 97%
23:00 +1°C° 0 mm 2 mps 751 mmHg 97%

29 November, Sunday

Time Temperature Precipitation Wind Pressure Humidity
00:00 -1°C° 0.1 mm 2 mps 751 mmHg 97%
01:00 -1°C° 0.1 mm 2 mps 751 mmHg 97%
02:00 -1°C° 0.1 mm 2 mps 751 mmHg 97%
03:00 -1°C° 0.1 mm 2 mps 751 mmHg 97%
04:00 -1°C° 0.1 mm 2 mps 751 mmHg 96%
05:00 -1°C° 0.1 mm 2 mps 751 mmHg 96%
06:00 -1°C° 0.1 mm 2 mps 751 mmHg 95%
07:00 -2°C° 0.1 mm 3 mps 751 mmHg 94%
08:00 -2°C° 0.1 mm 3 mps 751 mmHg 93%
09:00 -2°C° 0 mm 3 mps 751 mmHg 91%
10:00 -1°C° 0 mm 3 mps 751 mmHg 89%
11:00 -2°C° 0 mm 4 mps 751 mmHg 86%
12:00 -2°C° 0 mm 4 mps 751 mmHg 85%
13:00 -2°C° 0 mm 5 mps 751 mmHg 83%
14:00 -2°C° 0 mm 5 mps 750 mmHg 81%
15:00 -2°C° 0 mm 5 mps 750 mmHg 83%
16:00 -2°C° 0 mm 5 mps 750 mmHg 85%
17:00 -2°C° 0 mm 5 mps 750 mmHg 87%
18:00 -2°C° 0.1 mm 5 mps 749 mmHg 89%
19:00 -2°C° 0.1 mm 5 mps 749 mmHg 92%
20:00 -3°C° 0.1 mm 6 mps 749 mmHg 94%
21:00 -2°C° 0.3 mm 6 mps 749 mmHg 95%
22:00 -2°C° 0.3 mm 6 mps 748 mmHg 95%
23:00 -1°C° 0.3 mm 6 mps 748 mmHg 96%

30 November, Monday

Time Temperature Precipitation Wind Pressure Humidity
00:00 0°C° 0.4 mm 5 mps 748 mmHg 96%
01:00 0°C° 0.4 mm 5 mps 747 mmHg 96%
02:00 0°C° 0.4 mm 5 mps 747 mmHg 97%
03:00 0°C° 0.7 mm 5 mps 747 mmHg 97%
04:00 0°C° 0.7 mm 4 mps 747 mmHg 97%
05:00 0°C° 0.7 mm 4 mps 747 mmHg 97%
06:00 0°C° 0.3 mm 4 mps 747 mmHg 94%
07:00 0°C° 0.3 mm 3 mps 747 mmHg 92%
08:00 -1°C° 0.3 mm 3 mps 747 mmHg 89%
09:00 -1°C° 0 mm 3 mps 748 mmHg 86%
10:00 -1°C° 0 mm 3 mps 748 mmHg 82%
11:00 -1°C° 0 mm 3 mps 748 mmHg 79%
12:00 -1°C° 0 mm 3 mps 748 mmHg 81%
13:00 -2°C° 0 mm 4 mps 748 mmHg 82%
14:00 -2°C° 0 mm 4 mps 748 mmHg 84%
15:00 -3°C° 0 mm 4 mps 749 mmHg 86%
16:00 -2°C° 0 mm 3 mps 749 mmHg 89%
17:00 -2°C° 0 mm 3 mps 749 mmHg 91%
18:00 -3°C° 0.1 mm 4 mps 750 mmHg 92%
19:00 -3°C° 0.1 mm 4 mps 750 mmHg 92%
20:00 -3°C° 0.1 mm 4 mps 750 mmHg 92%
21:00 -3°C° 0.1 mm 4 mps 750 mmHg 93%
22:00 -3°C° 0.1 mm 4 mps 750 mmHg 93%
23:00 -3°C° 0.1 mm 4 mps 751 mmHg 93%
Show more